Weather History for Clarinda, IA

Change the Weather History Date:

Tuesday, March 12, 2013

  Actual Average Record
Temperature  
Mean Temperature 27 °F -  
Max Temperature 35 °F 44 °F 73 °F (2007)
Min Temperature 19 °F 24 °F -20 °F (1998)
Degree Days  
Heating Degree Days 38    
Moisture  
Dew Point 20 °F    
Average Humidity 75    
Maximum Humidity 93    
Minimum Humidity 60    
Precipitation  
Precipitation 0.00 in - - ()
Sea Level Pressure  
Sea Level Pressure 30.15 in    
Wind  
Wind Speed 8 mph (WNW)    
Max Wind Speed 23 mph    
Max Gust Speed 30 mph    
Visibility 10 miles    
Events      
Averages and records for this station are not official NWS values.
T = Trace of Precipitation, MM = Missing Value Source: NWS Daily Summary

Daily Weather History Graph

Daily Weather History Graph

Search for Another Location

Airport:

Trip Planner

Search our weather history database for the weather conditions in past years. The results will help you decide how hot, cold, wet, or windy it might be!

Date:

Astronomy

Mar. 12, 2013 Rise Set
Actual Time 7:36 AM CDT 7:23 PM CDT
Civil Twilight 7:08 AM CDT 7:51 PM CDT
Nautical Twilight 6:37 AM CDT 8:22 PM CDT
Astronomical Twilight 6:05 AM CDT 8:55 PM CDT
Moon 7:42 AM CDT (3/12) 8:40 PM CDT (3/12)
Length of Visible Light 12h 42m
Length of Day
11h 47m
New Moon, 1% of the Moon is Illuminated
Mar 12
New Moon
Mar 19
First Quarter
Mar 27
Full
Apr 2
Last Quarter
Apr 10
New

Hourly Weather History & Observations

Time (CDT) Temp. Windchill Dew Point Humidity Pressure Visibility Wind Dir Wind Speed Gust Speed Precip Events Conditions
12:35 AM 23.0 °F - 17.6 °F 80% 30.00 in 10.0 mi Calm Calm - N/A   Clear
12:55 AM 21.2 °F - 17.6 °F 86% 30.00 in 10.0 mi Calm Calm - N/A   Clear
1:15 AM 21.2 °F 16.4 °F 17.6 °F 86% 30.01 in 10.0 mi SW 3.5 mph - N/A   Clear
1:35 AM 21.2 °F - 17.6 °F 86% 30.01 in 10.0 mi Calm Calm - N/A   Clear
1:55 AM 19.4 °F - 15.8 °F 86% 30.01 in 10.0 mi Calm Calm - N/A   Clear
2:15 AM 21.2 °F 16.4 °F 17.6 °F 86% 30.02 in 10.0 mi South 3.5 mph - N/A   Clear
2:35 AM 19.4 °F 14.3 °F 17.6 °F 93% 30.03 in 10.0 mi West 3.5 mph - N/A   Clear
2:55 AM 23.0 °F 14.7 °F 19.4 °F 86% 30.03 in 10.0 mi WNW 6.9 mph - N/A   Clear
3:15 AM 24.8 °F 17.9 °F 19.4 °F 80% 30.03 in 10.0 mi NW 5.8 mph - N/A   Clear
3:35 AM 24.8 °F 19.1 °F 19.4 °F 80% 30.03 in 10.0 mi WNW 4.6 mph - N/A   Clear
3:55 AM 24.8 °F 19.1 °F 19.4 °F 80% 30.03 in 10.0 mi WNW 4.6 mph - N/A   Clear
4:15 AM 23.0 °F 14.7 °F 19.4 °F 86% 30.04 in 10.0 mi WNW 6.9 mph - N/A   Clear
4:35 AM 24.8 °F 16.1 °F 19.4 °F 80% 30.04 in 10.0 mi NW 8.1 mph - N/A   Clear
4:55 AM 24.8 °F 16.9 °F 19.4 °F 80% 30.04 in 10.0 mi NW 6.9 mph - N/A   Clear
5:15 AM 24.8 °F 19.1 °F 19.4 °F 80% 30.05 in 10.0 mi NW 4.6 mph - N/A   Clear
5:35 AM 23.0 °F - 19.4 °F 86% 30.05 in 10.0 mi Calm Calm - N/A   Clear
5:55 AM 21.2 °F - 17.6 °F 86% 30.05 in 10.0 mi Calm Calm - N/A   Clear
6:15 AM 21.2 °F 14.9 °F 17.6 °F 86% 30.06 in 10.0 mi SSW 4.6 mph - N/A   Clear
6:35 AM 21.2 °F 16.4 °F 17.6 °F 86% 30.06 in 10.0 mi South 3.5 mph - N/A   Clear
6:55 AM 19.4 °F 12.8 °F 17.6 °F 93% 30.07 in 10.0 mi SSW 4.6 mph - N/A   Clear
7:15 AM 19.4 °F 14.3 °F 17.6 °F 93% 30.07 in 10.0 mi SW 3.5 mph - N/A   Clear
7:35 AM 21.2 °F 10.9 °F 19.4 °F 93% 30.07 in 10.0 mi WSW 9.2 mph - N/A   Clear
7:55 AM 23.0 °F 13.9 °F 19.4 °F 86% 30.07 in 10.0 mi West 8.1 mph - N/A   Clear
8:15 AM 26.6 °F 16.2 °F 21.2 °F 80% 30.08 in 10.0 mi West 11.5 mph - N/A   Scattered Clouds
8:35 AM 26.6 °F 16.8 °F 21.2 °F 80% 30.09 in 10.0 mi West 10.4 mph - N/A   Mostly Cloudy
8:55 AM 26.6 °F 18.2 °F 21.2 °F 80% 30.10 in 10.0 mi West 8.1 mph - N/A   Scattered Clouds
9:15 AM 30.2 °F 18.9 °F 23.0 °F 75% 30.10 in 10.0 mi WNW 16.1 mph 21.9 mph N/A   Clear
9:35 AM 32.0 °F 23.0 °F 23.0 °F 69% 30.11 in 10.0 mi NW 11.5 mph - N/A   Clear
9:55 AM 30.2 °F 19.8 °F 21.2 °F 69% 30.12 in 10.0 mi NW 13.8 mph 28.8 mph N/A   Mostly Cloudy
10:15 AM 30.2 °F 18.1 °F 21.2 °F 69% 30.13 in 10.0 mi NW 18.4 mph 29.9 mph N/A   Overcast
10:35 AM 30.2 °F 17.8 °F 21.2 °F 69% 30.13 in 10.0 mi NW 19.6 mph 25.3 mph N/A   Overcast
10:55 AM 32.0 °F 20.5 °F 21.2 °F 64% 30.14 in 10.0 mi NW 18.4 mph 24.2 mph N/A   Overcast
11:15 AM 32.0 °F 21.6 °F 21.2 °F 64% 30.15 in 10.0 mi NW 15.0 mph 24.2 mph N/A   Overcast
11:35 AM 32.0 °F 20.1 °F 21.2 °F 64% 30.15 in 10.0 mi WNW 19.6 mph 24.2 mph N/A   Overcast
11:55 AM 32.0 °F 20.8 °F 21.2 °F 64% 30.16 in 10.0 mi NW 17.3 mph 26.5 mph N/A   Overcast
12:15 PM 33.8 °F 23.2 °F 23.0 °F 65% 30.16 in 10.0 mi WNW 17.3 mph 26.5 mph N/A   Overcast
12:35 PM 33.8 °F 22.5 °F 21.2 °F 60% 30.16 in 10.0 mi NW 19.6 mph 29.9 mph N/A   Overcast
12:55 PM 33.8 °F 22.5 °F 23.0 °F 65% 30.16 in 10.0 mi WNW 19.6 mph 26.5 mph N/A   Overcast
1:15 PM 35.6 °F 26.2 °F 23.0 °F 60% 30.17 in 10.0 mi NW 15.0 mph 26.5 mph N/A   Mostly Cloudy
1:35 PM 35.6 °F 24.0 °F 24.8 °F 65% 30.17 in 10.0 mi WNW 23.0 mph 28.8 mph N/A   Mostly Cloudy
1:55 PM 33.8 °F 23.2 °F 21.2 °F 60% 30.18 in 10.0 mi NW 17.3 mph 27.6 mph N/A   Mostly Cloudy
2:15 PM 33.8 °F 23.2 °F 21.2 °F 60% 30.19 in 10.0 mi NW 17.3 mph 28.8 mph N/A   Overcast
2:35 PM 33.8 °F 22.5 °F 21.2 °F 60% 30.19 in 10.0 mi NW 19.6 mph 29.9 mph N/A   Overcast
2:55 PM 33.8 °F 23.5 °F 21.2 °F 60% 30.19 in 10.0 mi NW 16.1 mph 28.8 mph N/A   Overcast
3:15 PM 32.0 °F 20.5 °F 23.0 °F 69% 30.19 in 10.0 mi NW 18.4 mph 26.5 mph N/A   Overcast
3:35 PM 30.2 °F 18.5 °F 21.2 °F 69% 30.20 in 10.0 mi NNW 17.3 mph 25.3 mph N/A   Overcast
3:55 PM 30.2 °F 19.8 °F 19.4 °F 64% 30.21 in 10.0 mi NW 13.8 mph 25.3 mph N/A   Overcast
4:15 PM 30.2 °F 18.1 °F 21.2 °F 69% 30.21 in 10.0 mi NW 18.4 mph 26.5 mph N/A   Overcast
4:35 PM 30.2 °F 17.8 °F 19.4 °F 64% 30.21 in 10.0 mi NW 19.6 mph 28.8 mph N/A   Overcast
4:55 PM 30.2 °F 19.3 °F 19.4 °F 64% 30.22 in 10.0 mi NW 15.0 mph 24.2 mph N/A   Overcast
5:15 PM 30.2 °F 19.3 °F 19.4 °F 64% 30.22 in 10.0 mi WNW 15.0 mph 26.5 mph N/A   Overcast
5:35 PM 30.2 °F 18.9 °F 19.4 °F 64% 30.22 in 10.0 mi WNW 16.1 mph 26.5 mph N/A   Overcast
5:55 PM 30.2 °F 19.3 °F 19.4 °F 64% 30.23 in 10.0 mi NW 15.0 mph 23.0 mph N/A   Overcast
6:15 PM 30.2 °F 19.8 °F 21.2 °F 69% 30.24 in 10.0 mi NNW 13.8 mph 23.0 mph N/A   Overcast
6:35 PM 30.2 °F 19.3 °F 21.2 °F 69% 30.24 in 10.0 mi NW 15.0 mph 20.7 mph N/A   Overcast
6:55 PM 28.4 °F 18.5 °F 21.2 °F 74% 30.24 in 10.0 mi NW 11.5 mph 17.3 mph N/A   Overcast
7:15 PM 28.4 °F 17.0 °F 21.2 °F 74% 30.25 in 10.0 mi NW 15.0 mph 21.9 mph N/A   Overcast
7:35 PM 28.4 °F 18.0 °F 19.4 °F 69% 30.26 in 10.0 mi NW 12.7 mph 20.7 mph N/A   Overcast
7:55 PM 26.6 °F 16.2 °F 19.4 °F 74% 30.27 in 10.0 mi NW 11.5 mph 17.3 mph N/A   Scattered Clouds
8:15 PM 26.6 °F 15.2 °F 19.4 °F 74% 30.27 in 10.0 mi NW 13.8 mph 21.9 mph N/A   Scattered Clouds
8:35 PM 26.6 °F 15.7 °F 19.4 °F 74% 30.28 in 10.0 mi NW 12.7 mph 20.7 mph N/A   Mostly Cloudy
8:55 PM 26.6 °F 15.2 °F 19.4 °F 74% 30.28 in 10.0 mi NW 13.8 mph 19.6 mph N/A   Scattered Clouds
9:15 PM 26.6 °F 15.2 °F 19.4 °F 74% 30.29 in 10.0 mi NW 13.8 mph 18.4 mph N/A   Scattered Clouds
9:35 PM 26.6 °F 14.7 °F 19.4 °F 74% 30.29 in 10.0 mi NW 15.0 mph 18.4 mph N/A   Clear
9:55 PM 26.6 °F 16.2 °F 19.4 °F 74% 30.29 in 10.0 mi NW 11.5 mph 18.4 mph N/A   Clear
10:15 PM 24.8 °F 15.3 °F 19.4 °F 80% 30.30 in 10.0 mi NW 9.2 mph - N/A   Scattered Clouds
10:35 PM 24.8 °F 15.3 °F 19.4 °F 80% 30.30 in 10.0 mi NW 9.2 mph - N/A   Scattered Clouds
10:55 PM 24.8 °F 14.0 °F 19.4 °F 80% 30.30 in 10.0 mi NW 11.5 mph - N/A   Clear
11:15 PM 24.8 °F 15.3 °F 19.4 °F 80% 30.31 in 10.0 mi NW 9.2 mph - N/A   Clear
11:35 PM 24.8 °F 15.3 °F 19.4 °F 80% 30.31 in 10.0 mi NW 9.2 mph - N/A   Clear
11:55 PM 24.8 °F 16.1 °F 19.4 °F 80% 30.32 in 10.0 mi NW 8.1 mph - N/A   Clear